Regional Weather Roundup
Issued by NWS

Home | Current Version | Previous Version | Graphics & Text | Print | Product List | Glossary Off
Versions: 1 2 3 4 5 6 7 8 9 10 11 12 13 14 15 16 17 18 19 20 21 22 23 24 25 26 27 28 29 30 31 32 33 34 35 36 37 38 39 40 41 42 43 44 45 46 47 48 49 50

000
ASUS43 KLSX 300059
RWRMO

WEATHER SUMMARY FOR MISSOURI
NATIONAL WEATHER SERVICE SPRINGFIELD MO
800 PM CDT MON JUN 29 2015

NOTE: "FAIR" INDICATES FEW OR NO CLOUDS BELOW 12,000 FEET WITH NO
       SIGNIFICANT WEATHER AND/OR OBSTRUCTIONS TO VISIBILITY.
       CURRENT SKY AND/OR WEATHER CONDITIONS ARE NOT AVAILABLE FOR
       CHILLICOTHE AND FARMINGTON.

MOZ001>031-035>038-043-044-053-054-300200-
...NORTHERN AND WESTERN MISSOURI...

CITY           SKY/WX    TMP DP  RH WIND       PRES   REMARKS
KANSAS CTY INT CLOUDY    81  66  60 CALM      29.90S
KANSAS C DTWN  CLEAR     83  64  52 NW5       29.88S
LEE`S SUMMIT   CLEAR     81  63  54 NW3       29.91R
ST JOSEPH      CLEAR     81  67  62 NW3       29.89S
CHILLICOTHE      N/A     78  69  73 CALM      29.89R
KIRKSVILLE     CLEAR     74  67  78 W5        29.88S

$$
MOZ066>068-077>081-088>096-101>105-300200-
...SOUTHWEST MISSOURI...

CITY           SKY/WX    TMP DP  RH WIND       PRES   REMARKS
SPRINGFIELD    CLEAR     80  64  58 NW3       29.93R
JOPLIN         CLEAR     81  66  60 N6        29.93S

$$
MOZ032>034-039>042-045>050-055>058-069>072-300200-
...CENTRAL MISSOURI...

CITY           SKY/WX    TMP DP  RH WIND       PRES   REMARKS
COLUMBIA       CLEAR     79  67  66 W5        29.88S
JEFFERSON CITY CLEAR     81  66  60 CALM      29.86S
ROLLA          CLEAR     76  67  73 W5        29.89R
SEDALIA        MOCLDY    80  67  64 MISG      29.90R
OSAGE BEACH    PTCLDY    79  68  69 SW3       29.90S

$$
MOZ051-052-059>065-300200-
...EAST CENTRAL MISSOURI...

CITY           SKY/WX    TMP DP  RH WIND       PRES   REMARKS
ST LOUIS INTL  MOCLDY    77  64  64 CALM      29.86R
SPIRIT OF STL  PTCLDY    74  72  93 CALM      29.84S
ST CHARLES     MOCLDY    78  70  76 NW5       29.84R

$$
MOZ072>076-082>087-097>100-106>115-300200-
...SOUTH CENTRAL AND SOUTHEAST MISSOURI...

CITY           SKY/WX    TMP DP  RH WIND       PRES   REMARKS
CAPE GIRARDEAU CLEAR     81  68  64 NE7       29.84S
FARMINGTON     MOCLDY    79  66  65 NW3       29.92R
POPLAR BLUFF   CLEAR     84  67  56 W3        29.84R
WEST PLAINS    CLEAR     78  65  63 NW3       29.92S

$$


USA.gov is the U.S. government's official web portal to all federal, state and local government web resources and services.